Kosmos-2527

operational
NORAD ID: 43508 Int'l Des: 2018-053 Owner: VVKOV/IACG Country: RU Constellation: GLONASS
MEOCIRCULAR

Kosmos-2527について

説明を読み込み中...

リアルタイム位置

3D地球を読み込み中...

次回通過

高度履歴

Altitude vs Time

uPlot chart will show altitude changes over time

軌道要素

1 43508U 18053A 26034.34525618 .00000005 00000-0 00000+0 0 9990
2 43508 65.5005 78.3729 0009490 239.1445 120.8396 2.13102023 59422
Epoch: Feb 3, 2026 • Age: 13 hours

現在のステータス

高度 19156.8 km
速度 3.95 km/s
衛星直下点 37.95°N, 11.93°E
打ち上げ日 Jun 16, 2018
運用期間 7.6 years
タイプ other

技術仕様

分類 Payload
質量 1450.00 kg
乾燥質量 1200.00 kg
総質量 1450.00 kg
長さ 4.00 m
直径 1.50 m
スパン 7.80 m
形状 Cyl + Ant + 2 Pan
製造者 RESH
バスタイプ Uragan
フェーズステータス In Orbit
所有者/国 VVKOV/IACG/RU

大規模コンステレーション

Loading constellations...